Content
SEND FEEDBACK

Daily
Averages
Monthly
Summary
United Kingdom

LONDON, ENGLAND


Home > Europe > United Kingdom > England
Elevation: 203 feet     Latitude: 51 09N     Longitude: 000 11W

WEATHER
 
SELECT A DAY
Number of Records: 292,281;   Date Range: 7/1/96 - 7/9/14
 
SHARE

PRINT THIS DATA

[ ← Previous Day ]
WEATHER ALMANAC - DECEMBER 21, 2013
[ Next Day → ]
[ °C ]   °F
Weather ElementAverageHighLow
Temperature50.2 °F53.6 °F (7:20 pm)48.2 °F (1:20 am)
Dewpoint47.3 °F50 °F (3:50 pm)42.8 °F (10:50 pm)
Humidity90 %94 % (8:20 am)82 % (12:50 am)
Barometer29.93 in30.09 in (12:50 am)29.77 in (5:20 pm)
Wind Speed17.7 mph24.2 mph (6:20 pm)
Wind Gust41.4 mph (5:50 pm)
Weather ElementAverage
Visibility4.4 mi
Wind DirectionSSW (211.7 °)

Weather ElementTotal
Precipitation---
Heating Degree Days14.1 (Base 65)
Growing Degree Days0.9 (Base 50)
Averaged from 47 records on December 21, 2013
WEATHER CONDITIONS BREAKOUT
WIND DIRECTION BREAKOUT
WEATHER BY HOUR - DECEMBER 21, 2013
[ °C ]   °F
Local TimeTemperatureDewpointHumidityBarometerVisibilityWind DirectionWind SpeedGust SpeedPrecipitationEventsConditions
12:50 AM50.0 °F44.6 °F82 %30.09 in4.3 miSSW (210°)18.4 mph32.2 mphRainLight Rain
1:20 AM48.2 °F46.4 °F93 %30.09 in3.1 miSSW (210°)16.1 mph28.8 mphRainLight Rain
1:50 AM48.2 °F46.4 °F93 %30.09 in3.1 miSSW (210°)16.1 mph27.6 mphRainLight Rain
2:20 AM48.2 °F46.4 °F93 %30.09 in3.1 miSSW (210°)16.1 mph27.6 mphRainLight Rain
2:50 AM48.2 °F46.4 °F93 %30.06 in3.1 miSSW (210°)16.1 mph28.8 mphRainLight Rain
3:20 AM48.2 °F46.4 °F93 %30.06 in3.1 miSSW (210°)18.4 mph34.5 mphRainLight Rain
3:50 AM50.0 °F46.4 °F87 %30.06 in3.1 miSSW (210°)17.3 mphRainLight Rain
4:20 AM50.0 °F46.4 °F87 %30.06 in4.3 miSSW (210°)17.3 mph31.1 mphRainLight Rain
4:50 AM50.0 °F46.4 °F87 %30.06 in3.7 miSSW (210°)16.1 mphRainLight Rain
5:20 AM50.0 °F46.4 °F87 %30.04 in4.3 miSSW (210°)16.1 mph29.9 mphRainLight Rain
5:50 AM50.0 °F46.4 °F87 %30.04 in4.3 miSSW (210°)16.1 mphRainRain
6:20 AM50.0 °F46.4 °F87 %30.04 in6.2 miSSW (210°)19.6 mphRainLight Rain
6:50 AM50.0 °F46.4 °F87 %30.04 in5.0 miSSW (210°)18.4 mph34.5 mphRainLight Rain
7:20 AM50.0 °F46.4 °F87 %30.04 in6.2 miSSW (210°)19.6 mphRainLight Rain
7:50 AM50.0 °F46.4 °F87 %30.01 in5.0 miSSW (210°)18.4 mph33.4 mphRainLight Rain
8:20 AM50.0 °F48.2 °F94 %30.01 in2.2 miSSW (210°)20.7 mph33.4 mphRainLight Rain
8:50 AM50.0 °F48.2 °F94 %30.01 in5.0 miSSW (210°)18.4 mph31.1 mphRainLight Rain
9:20 AM50.0 °F48.2 °F94 %30.01 in2.5 miSSW (210°)18.4 mph31.1 mphRainLight Rain
9:50 AM50.0 °F48.2 °F94 %30.01 in3.7 miSSW (200°)15.0 mphRainLight Rain
10:20 AM50.0 °F48.2 °F94 %30.01 in6.2 miSSW (210°)16.1 mphRainLight Rain
10:50 AM50.0 °F48.2 °F94 %29.98 in3.7 miSSW (210°)17.3 mph33.4 mphRainLight Rain
11:20 AM50.0 °F48.2 °F94 %29.98 in4.3 miSSW (210°)18.4 mphRainLight Rain
11:50 AM50.0 °F48.2 °F94 %29.98 in5.0 miSSW (210°)16.1 mph28.8 mphRainRain
12:20 PM50.0 °F48.2 °F94 %29.95 in3.1 miSSW (210°)16.1 mphRainRain
12:50 PM50.0 °F48.2 °F94 %29.95 in3.7 miSSW (210°)17.3 mph33.4 mphRainRain
1:20 PM51.8 °F48.2 °F88 %29.92 in6.2 miSSW (200°)18.4 mphRainLight Rain
1:50 PM50.0 °F48.2 °F94 %29.89 in3.1 miSSW (200°)17.3 mph33.4 mphRainLight Rain
2:20 PM50.0 °F48.2 °F94 %29.86 in3.1 miSSW (200°)17.3 mph29.9 mphRainLight Rain
2:50 PM50.0 °F48.2 °F94 %29.86 in3.7 miSSW (200°)18.4 mph29.9 mphRainLight Rain
3:20 PM51.8 °F48.2 °F88 %29.83 inSSW (200°)16.1 mph29.9 mphRainLight Rain
3:50 PM51.8 °F50.0 °F94 %29.83 in3.7 miSSW (210°)19.6 mph32.2 mphRainLight Rain
4:20 PM51.8 °F50.0 °F94 %29.83 in3.7 miSSW (200°)19.6 mph31.1 mphRainLight Rain
4:50 PM51.8 °F50.0 °F94 %29.80 in3.7 miSSW (200°)19.6 mph33.4 mphRainLight Rain
5:20 PM51.8 °F50.0 °F94 %29.77 in3.7 miSSW (200°)23.0 mphRainLight Rain
5:50 PM51.8 °F50.0 °F94 %29.77 in3.7 miSSW (210°)21.9 mph41.4 mphRainLight Rain
6:20 PM51.8 °F50.0 °F94 %29.80 in5.6 miSSW (210°)24.2 mph39.1 mphRainLight Rain
6:50 PM51.8 °F50.0 °F94 %29.80 in6.2 miSW (220°)17.3 mphRainLight Rain
7:20 PM53.6 °F48.2 °F82 %29.80 in6.2 miSW (220°)19.6 mphMostly Cloudy
7:50 PM53.6 °F48.2 °F82 %29.77 in5.0 miSSW (210°)19.6 mph34.5 mphRainLight Rain
8:20 PM51.8 °F50.0 °F94 %29.77 in3.1 miSW (220°)21.9 mph34.5 mphRainLight Rain
8:50 PM51.8 °F48.2 °F88 %29.80 in5.6 miSW (230°)19.6 mphMostly Cloudy
9:20 PM50.0 °F44.6 °F82 %29.80 in6.2 miSW (230°)15.0 mphMostly Cloudy
9:50 PM50.0 °F44.6 °F82 %29.83 inSW (230°)15.0 mphClear
10:20 PM48.2 °F44.6 °F87 %29.83 inSW (230°)13.8 mphClear
10:50 PM48.2 °F42.8 °F82 %29.83 in6.2 miSW (230°)13.8 mphPartly Cloudy
11:20 PM48.2 °F42.8 °F82 %29.83 in6.2 miSW (230°)13.8 mphScattered Clouds
11:50 PM48.2 °F42.8 °F82 %29.86 in6.2 miSW (230°)13.8 mphPartly Cloudy
Hourly data recorded from EGKK, located miles away from London, England







STORIES FROM OUR PARTNERS